GW3529 Weather Reports


Display with metric or nautical units.
time (UTC)temp
F
wind
direction
speed
MPH
gust
MPH
rain 1hr
in
rain 24hr
in
rain mn
in
humidity
%
barometer
mb
20260502221517 74 5 16.0 28.0 0.00 0.00 0.00 20 1009.1
20260502220015 75 342 16.0 24.0 0.00 0.00 0.00 18 1009.2
20260502214514 77 334 19.0 27.0 0.00 0.00 0.00 17 1009.4
20260502213014 77 12 9.0 28.0 0.00 0.00 0.00 16 1009.6
20260502211511 76 348 13.0 30.0 0.00 0.00 0.00 16 1009.9
20260502210010 75 355 17.0 26.0 0.00 0.00 0.00 17 1010.1
20260502204519 76 319 17.0 30.0 0.00 0.00 0.00 15 1010.3
20260502203014 76 325 20.0 30.0 0.00 0.00 0.00 15 1010.4
20260502201505 78 264 13.0 20.0 0.00 0.00 0.00 14 1010.4
20260502200003 77 277 10.0 24.0 0.00 0.00 0.00 15 1010.8
20260502194559 76 329 8.0 19.0 0.00 0.00 0.00 15 1011.0
20260502193056 75 350 13.0 23.0 0.00 0.00 0.00 16 1011.0
20260502191601 75 323 19.0 27.0 0.00 0.00 0.00 17 1011.3
20260502190051 74 342 19.0 28.0 0.00 0.00 0.00 17 1011.5
20260502184549 73 19 13.0 23.0 0.00 0.00 0.00 16 1011.7
20260502183047 73 313 10.0 16.0 0.00 0.00 0.00 19 1012.0
20260502181549 73 350 17.0 26.0 0.00 0.00 0.00 19 1012.3
20260502163028 70 318 8.0 18.0 0.00 0.00 0.00 21 1013.4
20260502161525 70 5 11.0 19.0 0.00 0.00 0.00 21 1013.5
20260502151518 67 355 7.0 16.0 0.00 0.00 0.00 26 1014.2
20260502123009 49 172 2.0 9.0 0.00 0.00 0.00 42 1016.1
20260502121613 48 355 1.0 3.0 0.00 0.00 0.00 41 1016.3
20260502114530 48 331 3.0 6.0 0.00 0.00 0.00 41 1016.6
20260502113035 48 245 4.0 10.0 0.00 0.00 0.00 42 1016.6
20260502111539 48 199 6.0 10.0 0.00 0.00 0.00 42 1016.4
20260502110028 48 188 3.0 5.0 0.00 0.00 0.00 41 1016.7
20260502104522 47 191 2.0 4.0 0.00 0.00 0.00 42 1016.9
20260502103021 47 151 0.0 4.0 0.00 0.00 0.00 42 1017.1
20260502101519 47 146 2.0 6.0 0.00 0.00 0.00 42 1017.3
20260502091511 46 158 4.0 10.0 0.00 0.00 0.00 45 1017.9
20260502080107 46 166 14.0 18.0 0.00 0.00 0.00 43 1018.4
20260502070046 42 203 1.0 8.0 0.00 0.00 0.00 51 1019.3
20260502064543 42 200 3.0 5.0 0.00 0.00 0.00 51 1019.6
20260502063055 41 186 0.0 1.0 0.00 0.00 0.00 52 1019.7
20260502061547 40 186 0.0 0.0 0.00 0.00 0.00 54 1019.8
20260502060036 41 178 0.0 0.0 0.00 0.00 0.00 52 1019.9
20260502054534 42 170 0.0 0.0 0.00 0.00 0.00 50 1020.0
20260502053038 44 167 0.0 3.0 0.00 0.00 0.00 47 1019.9
20260502051535 46 174 0.0 10.0 0.00 0.00 0.00 44 1020.1
20260502050032 43 175 0.0 6.0 0.00 0.00 0.00 50 1020.3
20260502044531 42 171 0.0 3.0 0.00 0.00 0.00 51 1020.5
20260502043031 43 167 0.0 0.0 0.00 0.00 0.00 50 1020.6
20260502041529 43 166 0.0 0.0 0.00 0.00 0.00 51 1020.5
20260502040130 43 165 0.0 0.0 0.00 0.00 0.00 51 1020.5
20260502034528 43 157 0.0 0.0 0.00 0.00 0.00 50 1020.5
20260502033028 46 157 0.0 6.0 0.00 0.00 0.00 45 1020.4
20260502031527 47 155 0.0 0.0 0.00 0.00 0.00 43 1020.3
20260502030027 46 154 0.0 0.0 0.00 0.00 0.00 44 1020.1
20260502024528 46 153 0.0 5.0 0.00 0.00 0.00 46 1020.0
20260502023032 48 110 0.0 0.0 0.00 0.00 0.00 43 1019.6
20260502021529 51 63 0.0 0.0 0.00 0.00 0.00 38 1019.4
20260502020027 52 63 0.0 0.0 0.00 0.00 0.00 37 1019.2
20260502014526 54 34 0.0 0.0 0.00 0.00 0.00 34 1019.2
20260502013024 55 34 0.0 5.0 0.00 0.00 0.00 33 1018.9
20260502011524 56 24 0.0 4.0 0.00 0.00 0.00 31 1018.8
20260502010023 56 63 0.0 0.0 0.00 0.00 0.00 30 1018.8
20260502004525 56 59 0.0 13.0 0.00 0.00 0.00 30 1018.7
20260502003022 57 28 0.0 7.0 0.00 0.00 0.00 30 1018.5
20260502001525 57 71 2.0 12.0 0.00 0.00 0.00 30 1018.5
20260502000022 58 360 0.0 9.0 0.00 0.00 0.00 30 1018.4
20260501234520 58 16 0.0 13.0 0.00 0.00 0.00 30 1018.4
20260501233019 58 75 0.0 14.0 0.00 0.00 0.00 30 1018.4
20260501231518 58 23 1.0 16.0 0.00 0.00 0.00 30 1018.3
20260501230018 58 5 6.0 14.0 0.00 0.00 0.00 30 1018.2
20260501224518 58 11 0.0 13.0 0.00 0.00 0.00 31 1018.3
20260501223017 59 325 0.0 6.0 0.00 0.00 0.00 30 1018.1